Location: Arena
(42.5007°N, 9.4650°E)
Time: 22:05:16
(UTC+00:00)

Terra - Pass Details

Date: 09 April 2020
Orbit: 701 x 703 km, 98.2° (Epoch: 05 June)

Event Time Altitude Azimuth Distance (km) Brightness Sun altitude
Exits shadow 22:09:48 20° 312° (NW) 1,601 4.1 -36.8°
Drops below altitude 10° 22:11:36 10° 327° (NNW) 2,178 5.1 -36.9°
Sets 22:14:05 0° 337° (NNW) 3,102 6.1 -37.1°
